Location: Codford Saint Peter
(51.1597°N, 2.0531°W)
Time: 13:55:58
(UTC+00:00)

Cosmos 2151 Rocket - Pass Details

Date: 18 September 2020
Orbit: 618 x 642 km, 82.5° (Epoch: 25 October)

Event Time Altitude Azimuth Distance (km) Brightness Sun altitude
Rises 20:22:33 0° 198° (SSW) 2,904 6.9 -19.9°
Reaches altitude 10° 20:24:47 10° 202° (SSW) 2,006 6.1 -20.3°
Maximum altitude 20:29:12 62° 283° (WNW) 717 4.1 -20.8°
Drops below altitude 10° 20:33:41 10° 5° (N) 2,037 6.5 -21.4°
Sets 20:35:59 0° 9° (N) 2,954 7.4 -21.8°
